Year,Month,Day,Hour,Minute,Value (Times are PST for temperature in C)
2015,05,23,07,19,13.20
2015,05,23,07,20,13.30
2015,05,23,07,21,13.30
2015,05,23,07,22,13.30
2015,05,23,07,23,13.30
2015,05,23,07,24,13.40
2015,05,23,07,25,13.40
2015,05,23,07,26,13.40
2015,05,23,07,27,13.40
2015,05,23,07,28,13.50
2015,05,23,07,29,13.50
2015,05,23,07,30,13.50
2015,05,23,07,31,13.50
2015,05,23,07,32,13.50
2015,05,23,07,33,13.50
2015,05,23,07,34,13.50
2015,05,23,07,35,13.40
2015,05,23,07,36,13.40
2015,05,23,07,37,13.30
2015,05,23,07,38,13.30
2015,05,23,07,39,13.30
2015,05,23,07,40,13.30
2015,05,23,07,41,13.30
2015,05,23,07,42,13.30
2015,05,23,07,43,13.20
2015,05,23,07,44,13.20
2015,05,23,07,45,13.20
2015,05,23,07,46,13.20
2015,05,23,07,47,13.20
2015,05,23,07,48,13.20
2015,05,23,07,49,13.30
2015,05,23,07,50,13.30
2015,05,23,07,51,13.20
2015,05,23,07,52,13.20
2015,05,23,07,53,13.20
2015,05,23,07,54,13.20
2015,05,23,07,55,13.20
2015,05,23,07,56,13.20
2015,05,23,07,57,13.20
2015,05,23,07,58,13.10
2015,05,23,07,59,13.10
2015,05,23,08,00,13.10
2015,05,23,08,01,13.00
2015,05,23,08,02,13.00
2015,05,23,08,03,13.00
2015,05,23,08,04,13.00
2015,05,23,08,05,13.00
2015,05,23,08,06,13.00
2015,05,23,08,07,13.10
2015,05,23,08,08,13.10
2015,05,23,08,09,13.10
2015,05,23,08,10,13.10
2015,05,23,08,11,13.10
2015,05,23,08,12,13.20
2015,05,23,08,13,13.20
2015,05,23,08,14,13.20
2015,05,23,08,15,13.20
2015,05,23,08,16,13.20
2015,05,23,08,17,13.30
2015,05,23,08,18,13.30
2015,05,23,08,19,13.30
2015,05,23,08,20,13.30
2015,05,23,08,21,13.30
2015,05,23,08,22,13.30
2015,05,23,08,23,13.30
2015,05,23,08,24,13.40
2015,05,23,08,25,13.40
2015,05,23,08,26,13.40
2015,05,23,08,27,13.40
2015,05,23,08,28,13.40
2015,05,23,08,29,13.40
2015,05,23,08,30,13.40
2015,05,23,08,31,13.40
2015,05,23,08,32,13.40
2015,05,23,08,33,13.40
2015,05,23,08,34,13.50
2015,05,23,08,35,13.50
2015,05,23,08,36,13.50
2015,05,23,08,37,13.60
2015,05,23,08,38,13.60
2015,05,23,08,39,13.60
2015,05,23,08,40,13.60
2015,05,23,08,41,13.60
2015,05,23,08,42,13.60
2015,05,23,08,43,13.60
2015,05,23,08,44,13.70
2015,05,23,08,45,13.70
2015,05,23,08,46,13.70
2015,05,23,08,47,13.70
2015,05,23,08,48,13.70
2015,05,23,08,49,13.80
2015,05,23,08,50,13.80
2015,05,23,08,51,13.80
2015,05,23,08,52,13.70
2015,05,23,08,53,13.70
2015,05,23,08,54,13.70
2015,05,23,08,55,13.70
2015,05,23,08,56,13.80
2015,05,23,08,57,13.80
2015,05,23,08,58,13.80
2015,05,23,08,59,13.80
2015,05,23,09,00,13.80
2015,05,23,09,01,13.90
2015,05,23,09,02,13.90
2015,05,23,09,03,14.00
2015,05,23,09,04,14.00
2015,05,23,09,05,14.00
2015,05,23,09,06,14.00
2015,05,23,09,07,14.00
2015,05,23,09,08,14.00
2015,05,23,09,09,14.00
2015,05,23,09,10,14.10
2015,05,23,09,11,14.10
2015,05,23,09,12,14.10
2015,05,23,09,13,14.20
2015,05,23,09,14,14.20
2015,05,23,09,15,14.20
2015,05,23,09,16,14.30
2015,05,23,09,17,14.20
2015,05,23,09,18,14.20
2015,05,23,09,19,14.20
2015,05,23,09,20,14.20
2015,05,23,09,21,14.20
2015,05,23,09,22,14.20
2015,05,23,09,23,14.20
2015,05,23,09,24,14.20
2015,05,23,09,25,14.20
2015,05,23,09,26,14.30
2015,05,23,09,27,14.30
2015,05,23,09,28,14.40
2015,05,23,09,29,14.40
2015,05,23,09,30,14.40
2015,05,23,09,31,14.40
2015,05,23,09,32,14.50
2015,05,23,09,33,14.60
2015,05,23,09,34,14.60
2015,05,23,09,35,14.60
2015,05,23,09,36,14.50
2015,05,23,09,37,14.50
2015,05,23,09,38,14.60
2015,05,23,09,39,14.70
2015,05,23,09,40,14.80
2015,05,23,09,41,15.00
2015,05,23,09,42,15.00
2015,05,23,09,43,15.00
2015,05,23,09,44,15.00
2015,05,23,09,45,15.00
2015,05,23,09,46,15.00
2015,05,23,09,47,15.00
2015,05,23,09,48,15.00
2015,05,23,09,49,15.00
2015,05,23,09,50,15.00
2015,05,23,09,51,15.00
2015,05,23,09,52,15.00
2015,05,23,09,53,15.00
2015,05,23,09,54,15.00
2015,05,23,09,55,15.10
2015,05,23,09,56,15.20
2015,05,23,09,57,15.40
2015,05,23,09,58,15.50
2015,05,23,09,59,15.60
2015,05,23,10,00,15.70
2015,05,23,10,01,15.70
2015,05,23,10,02,15.80
2015,05,23,10,03,15.70
2015,05,23,10,04,15.60
2015,05,23,10,05,15.50
2015,05,23,10,06,15.50
2015,05,23,10,07,15.20
2015,05,23,10,08,15.00
2015,05,23,10,09,15.00
2015,05,23,10,10,15.00
2015,05,23,10,11,15.20
2015,05,23,10,12,15.30
2015,05,23,10,13,15.50
2015,05,23,10,14,15.60
2015,05,23,10,15,15.70
2015,05,23,10,16,15.90
2015,05,23,10,17,16.00
2015,05,23,10,18,16.10
2015,05,23,10,19,16.10
2015,05,23,10,20,16.10
2015,05,23,10,21,16.00
2015,05,23,10,22,16.00
2015,05,23,10,23,15.90
2015,05,23,10,24,15.80
2015,05,23,10,25,15.80
2015,05,23,10,26,15.80
2015,05,23,10,27,15.80
2015,05,23,10,28,15.80
2015,05,23,10,29,15.70
2015,05,23,10,30,15.70
2015,05,23,10,31,15.70
2015,05,23,10,32,15.80
2015,05,23,10,33,15.90
2015,05,23,10,34,15.90
2015,05,23,10,35,15.90
2015,05,23,10,36,15.80
2015,05,23,10,37,15.60
2015,05,23,10,38,15.60
2015,05,23,10,39,15.60
2015,05,23,10,40,15.70
2015,05,23,10,41,15.80
2015,05,23,10,42,15.80
2015,05,23,10,43,15.80
2015,05,23,10,44,15.90
2015,05,23,10,45,15.90
2015,05,23,10,46,16.10
2015,05,23,10,47,16.20
2015,05,23,10,48,16.20
2015,05,23,10,49,16.20
2015,05,23,10,50,16.20
2015,05,23,10,51,16.20
2015,05,23,10,52,16.20
2015,05,23,10,53,16.40
2015,05,23,10,54,16.40
2015,05,23,10,55,16.40
2015,05,23,10,56,16.40
2015,05,23,10,57,16.40
2015,05,23,10,58,16.40
2015,05,23,10,59,16.50
2015,05,23,11,00,16.50
2015,05,23,11,01,16.30
2015,05,23,11,02,15.90
2015,05,23,11,03,15.70
2015,05,23,11,04,15.60
2015,05,23,11,05,15.60
2015,05,23,11,06,15.60
2015,05,23,11,07,15.60
2015,05,23,11,08,15.60
2015,05,23,11,09,15.70
2015,05,23,11,10,15.80
2015,05,23,11,11,15.90
2015,05,23,11,12,15.90
2015,05,23,11,13,15.90
2015,05,23,11,14,16.00
2015,05,23,11,15,16.00
2015,05,23,11,16,16.20
2015,05,23,11,17,16.20
2015,05,23,11,18,16.20
2015,05,23,11,19,16.20
2015,05,23,11,20,16.30
2015,05,23,11,21,16.30
2015,05,23,11,22,16.40
2015,05,23,11,23,16.40
2015,05,23,11,24,16.50
2015,05,23,11,25,16.50
2015,05,23,11,26,16.60
2015,05,23,11,27,16.70
2015,05,23,11,28,16.80
2015,05,23,11,29,16.90
2015,05,23,11,30,16.90
2015,05,23,11,31,16.90
2015,05,23,11,32,17.00
2015,05,23,11,33,17.00
2015,05,23,11,34,17.10
2015,05,23,11,35,17.00
2015,05,23,11,36,17.10
2015,05,23,11,37,17.10
2015,05,23,11,38,17.10
2015,05,23,11,39,17.20
2015,05,23,11,40,17.30
2015,05,23,11,41,17.20
2015,05,23,11,42,17.20
2015,05,23,11,43,17.30
2015,05,23,11,44,17.30
2015,05,23,11,45,17.30
2015,05,23,11,46,17.40
2015,05,23,11,47,17.30
2015,05,23,11,48,17.30
2015,05,23,11,49,17.00
2015,05,23,11,50,16.70
2015,05,23,11,51,16.50
2015,05,23,11,52,16.40
2015,05,23,11,53,16.60
2015,05,23,11,54,16.70
2015,05,23,11,55,16.80
2015,05,23,11,56,17.00
2015,05,23,11,57,17.10
2015,05,23,11,58,17.10
2015,05,23,11,59,17.10
2015,05,23,12,00,17.00
2015,05,23,12,01,16.80
2015,05,23,12,02,16.70
2015,05,23,12,03,16.50
2015,05,23,12,04,16.40
2015,05,23,12,05,16.40
2015,05,23,12,06,16.30
2015,05,23,12,07,16.30
2015,05,23,12,08,16.30
2015,05,23,12,09,16.40
2015,05,23,12,10,16.50
2015,05,23,12,11,16.40
2015,05,23,12,12,16.40
2015,05,23,12,13,16.50
2015,05,23,12,14,16.50
2015,05,23,12,15,16.50
2015,05,23,12,16,16.40
2015,05,23,12,17,16.30
2015,05,23,12,18,16.20
2015,05,23,12,19,16.30
2015,05,23,12,20,16.10
2015,05,23,12,21,16.10
2015,05,23,12,22,16.10
2015,05,23,12,23,16.20
2015,05,23,12,24,16.30
2015,05,23,12,25,16.40
2015,05,23,12,26,16.50
2015,05,23,12,27,16.60
2015,05,23,12,28,16.50
2015,05,23,12,29,16.60
2015,05,23,12,30,16.60
2015,05,23,12,31,16.60
2015,05,23,12,32,16.70
2015,05,23,12,33,16.70
2015,05,23,12,34,16.60
2015,05,23,12,35,16.60
2015,05,23,12,36,16.60
2015,05,23,12,37,16.70
2015,05,23,12,38,16.80
2015,05,23,12,39,16.90
2015,05,23,12,40,16.80
2015,05,23,12,41,16.80
2015,05,23,12,42,16.90
2015,05,23,12,43,17.00
2015,05,23,12,44,17.10
2015,05,23,12,45,17.30
2015,05,23,12,46,17.40
2015,05,23,12,47,17.50
2015,05,23,12,48,17.60
2015,05,23,12,49,17.70
2015,05,23,12,50,17.70
2015,05,23,12,51,17.60
2015,05,23,12,52,17.50
2015,05,23,12,53,17.20
2015,05,23,12,54,17.10
2015,05,23,12,55,17.00
2015,05,23,12,56,16.90
2015,05,23,12,57,16.80
2015,05,23,12,58,16.70
2015,05,23,12,59,16.50
2015,05,23,13,00,16.40
2015,05,23,13,01,16.50
2015,05,23,13,02,16.60
2015,05,23,13,03,16.70
2015,05,23,13,04,16.70
2015,05,23,13,05,16.70
2015,05,23,13,06,16.60
2015,05,23,13,07,16.60
2015,05,23,13,08,16.60
2015,05,23,13,09,16.60
2015,05,23,13,10,16.50
2015,05,23,13,11,16.50
2015,05,23,13,12,16.40
2015,05,23,13,13,16.40
2015,05,23,13,14,16.50
2015,05,23,13,15,16.60
2015,05,23,13,16,16.60
2015,05,23,13,17,16.60
2015,05,23,13,18,16.60
2015,05,23,13,19,16.60
2015,05,23,13,20,16.70
2015,05,23,13,21,16.70
2015,05,23,13,22,16.70
2015,05,23,13,23,16.70
2015,05,23,13,24,16.70
2015,05,23,13,25,16.80
2015,05,23,13,26,16.80
2015,05,23,13,27,16.80
2015,05,23,13,28,16.80
2015,05,23,13,29,16.70
2015,05,23,13,30,16.40
2015,05,23,13,31,16.20
2015,05,23,13,32,16.10
2015,05,23,13,33,15.90
2015,05,23,13,34,15.80
2015,05,23,13,35,15.70
2015,05,23,13,36,15.70
2015,05,23,13,37,15.70
2015,05,23,13,38,15.70
2015,05,23,13,39,15.70
2015,05,23,13,40,15.70
2015,05,23,13,41,15.70
2015,05,23,13,42,15.70
2015,05,23,13,43,15.80
2015,05,23,13,44,15.90
2015,05,23,13,45,16.00
2015,05,23,13,46,16.00
2015,05,23,13,47,16.10
2015,05,23,13,48,16.20
2015,05,23,13,49,16.30
2015,05,23,13,50,16.40
2015,05,23,13,51,16.50
2015,05,23,13,52,16.60
2015,05,23,13,53,16.70
2015,05,23,13,54,16.80
2015,05,23,13,55,16.80
2015,05,23,13,56,16.90
2015,05,23,13,57,16.90
2015,05,23,13,58,17.00
2015,05,23,13,59,17.00
2015,05,23,14,00,17.10
2015,05,23,14,01,17.20
2015,05,23,14,02,17.30
2015,05,23,14,03,17.30
2015,05,23,14,04,17.40
2015,05,23,14,05,17.40
2015,05,23,14,06,17.30
2015,05,23,14,07,17.30
2015,05,23,14,08,17.20
2015,05,23,14,09,17.20
2015,05,23,14,10,17.30
2015,05,23,14,11,17.40
2015,05,23,14,12,17.50
2015,05,23,14,13,17.50
2015,05,23,14,14,17.60
2015,05,23,14,15,17.70
2015,05,23,14,16,17.80
2015,05,23,14,17,17.80
2015,05,23,14,18,17.80
2015,05,23,14,19,17.80
2015,05,23,14,20,17.90
2015,05,23,14,21,18.00
2015,05,23,14,22,18.00
2015,05,23,14,23,18.10
2015,05,23,14,24,18.20
2015,05,23,14,25,18.10
2015,05,23,14,26,18.00
2015,05,23,14,27,17.90
2015,05,23,14,28,17.80
2015,05,23,14,29,17.60
2015,05,23,14,30,17.50
2015,05,23,14,31,17.40
2015,05,23,14,32,17.30
2015,05,23,14,33,17.30
2015,05,23,14,34,17.30
2015,05,23,14,35,17.30
2015,05,23,14,36,17.30
2015,05,23,14,37,17.30
2015,05,23,14,38,17.20
2015,05,23,14,39,17.20
2015,05,23,14,40,17.20
2015,05,23,14,41,17.40
2015,05,23,14,42,17.60
2015,05,23,14,43,17.70
2015,05,23,14,44,17.80
2015,05,23,14,45,17.90
2015,05,23,14,46,17.90
2015,05,23,14,47,17.90
2015,05,23,14,48,17.90
2015,05,23,14,49,17.80
2015,05,23,14,50,17.80
2015,05,23,14,51,17.80
2015,05,23,14,52,17.90
2015,05,23,14,53,18.00
2015,05,23,14,54,18.10
2015,05,23,14,55,18.30
2015,05,23,14,56,18.30
2015,05,23,14,57,18.30
2015,05,23,14,58,18.30
2015,05,23,14,59,18.40
2015,05,23,15,00,18.30
2015,05,23,15,01,18.30
2015,05,23,15,02,18.20
2015,05,23,15,03,17.90
2015,05,23,15,04,17.70
2015,05,23,15,05,17.50
2015,05,23,15,06,17.50
2015,05,23,15,07,17.60
2015,05,23,15,08,17.60
2015,05,23,15,09,17.60
2015,05,23,15,10,17.50
2015,05,23,15,11,17.50
2015,05,23,15,12,17.50
2015,05,23,15,13,17.60
2015,05,23,15,14,17.70
2015,05,23,15,15,17.50
2015,05,23,15,16,17.50
2015,05,23,15,17,17.50
2015,05,23,15,18,17.40
2015,05,23,15,19,17.50
2015,05,23,15,20,17.50
2015,05,23,15,21,17.70
2015,05,23,15,22,17.70
2015,05,23,15,23,17.60
2015,05,23,15,24,17.70
2015,05,23,15,25,17.70
2015,05,23,15,26,17.70
2015,05,23,15,27,17.80
2015,05,23,15,28,17.90
2015,05,23,15,29,17.90
2015,05,23,15,30,18.00
2015,05,23,15,31,18.00
2015,05,23,15,32,18.00
2015,05,23,15,33,17.90
2015,05,23,15,34,17.80
2015,05,23,15,35,17.90
2015,05,23,15,36,18.00
2015,05,23,15,37,17.90
2015,05,23,15,38,17.90
2015,05,23,15,39,18.00
2015,05,23,15,40,17.90
2015,05,23,15,41,17.90
2015,05,23,15,42,17.80
2015,05,23,15,43,17.70
2015,05,23,15,44,17.70
2015,05,23,15,45,17.70
2015,05,23,15,46,17.70
2015,05,23,15,47,17.60
2015,05,23,15,48,17.60
2015,05,23,15,49,17.70
2015,05,23,15,50,17.80
2015,05,23,15,51,17.80
2015,05,23,15,52,17.80
2015,05,23,15,53,17.70
2015,05,23,15,54,17.50
2015,05,23,15,55,17.40
2015,05,23,15,56,17.20
2015,05,23,15,57,17.20
2015,05,23,15,58,17.30
2015,05,23,15,59,17.30
2015,05,23,16,00,17.40
2015,05,23,16,01,17.50
2015,05,23,16,02,17.60
2015,05,23,16,03,17.70
2015,05,23,16,04,17.80
2015,05,23,16,05,17.80
2015,05,23,16,06,17.80
2015,05,23,16,07,17.70
2015,05,23,16,08,17.60
2015,05,23,16,09,17.60
2015,05,23,16,10,17.60
2015,05,23,16,11,17.60
2015,05,23,16,12,17.60
2015,05,23,16,13,17.70
2015,05,23,16,14,17.80
2015,05,23,16,15,18.00
2015,05,23,16,16,18.10
2015,05,23,16,17,18.30
2015,05,23,16,18,18.40
2015,05,23,16,19,18.50
2015,05,23,16,20,18.50
2015,05,23,16,21,18.50
2015,05,23,16,22,18.50
2015,05,23,16,23,18.40
2015,05,23,16,24,18.40
2015,05,23,16,25,18.30
2015,05,23,16,26,18.20
2015,05,23,16,27,18.10
2015,05,23,16,28,18.10
2015,05,23,16,29,18.10
2015,05,23,16,30,18.20
2015,05,23,16,31,18.10
2015,05,23,16,32,18.10
2015,05,23,16,33,18.20
2015,05,23,16,34,18.10
2015,05,23,16,35,18.10
2015,05,23,16,36,18.10
2015,05,23,16,37,18.10
2015,05,23,16,38,18.10
2015,05,23,16,39,18.10
2015,05,23,16,40,18.20
2015,05,23,16,41,18.30
2015,05,23,16,42,18.30
2015,05,23,16,43,18.30
2015,05,23,16,44,18.20
2015,05,23,16,45,18.10
2015,05,23,16,46,18.10
2015,05,23,16,47,18.10
2015,05,23,16,48,18.20
2015,05,23,16,49,18.20
2015,05,23,16,50,18.20
2015,05,23,16,51,18.20
2015,05,23,16,52,18.20
2015,05,23,16,53,18.20
2015,05,23,16,54,18.20
2015,05,23,16,55,18.20
2015,05,23,16,56,18.20
2015,05,23,16,57,18.20
2015,05,23,16,58,18.10
2015,05,23,16,59,18.10
2015,05,23,17,00,18.00
2015,05,23,17,01,18.00
2015,05,23,17,02,18.10
2015,05,23,17,03,18.10
2015,05,23,17,04,18.10
2015,05,23,17,05,18.10
2015,05,23,17,06,18.10
2015,05,23,17,07,18.00
2015,05,23,17,08,17.90
2015,05,23,17,09,17.90
2015,05,23,17,10,17.90
2015,05,23,17,11,17.90
2015,05,23,17,12,17.90
2015,05,23,17,13,17.90
2015,05,23,17,14,18.00
2015,05,23,17,15,18.10
2015,05,23,17,16,18.10
2015,05,23,17,17,18.20
2015,05,23,17,18,18.30
2015,05,23,17,19,18.40
2015,05,23,17,20,18.60
2015,05,23,17,21,18.60
2015,05,23,17,22,18.50
2015,05,23,17,23,18.40
2015,05,23,17,24,18.40
2015,05,23,17,25,18.40
2015,05,23,17,26,18.40
2015,05,23,17,27,18.30
2015,05,23,17,28,18.30
2015,05,23,17,29,18.30
2015,05,23,17,30,18.40
2015,05,23,17,31,18.40
2015,05,23,17,32,18.40
2015,05,23,17,33,18.40
2015,05,23,17,34,18.50
2015,05,23,17,35,18.60
2015,05,23,17,36,18.60
2015,05,23,17,37,18.60
2015,05,23,17,38,18.60
2015,05,23,17,39,18.50
2015,05,23,17,40,18.50
2015,05,23,17,41,18.60
2015,05,23,17,42,18.60
2015,05,23,17,43,18.70
2015,05,23,17,44,18.80
2015,05,23,17,45,18.80
2015,05,23,17,46,18.80
2015,05,23,17,47,18.70
2015,05,23,17,48,18.60
2015,05,23,17,49,18.50
2015,05,23,17,50,18.30
2015,05,23,17,51,18.20
2015,05,23,17,52,18.10
2015,05,23,17,53,18.00
2015,05,23,17,54,17.90
2015,05,23,17,55,17.90
2015,05,23,17,56,17.90
2015,05,23,17,57,17.90
2015,05,23,17,58,17.80
2015,05,23,17,59,17.80
2015,05,23,18,00,17.80
2015,05,23,18,01,17.80
2015,05,23,18,02,17.80
2015,05,23,18,03,17.80
2015,05,23,18,04,17.80
2015,05,23,18,05,17.90
2015,05,23,18,06,17.90
2015,05,23,18,07,17.90
2015,05,23,18,08,17.80
2015,05,23,18,09,17.80
2015,05,23,18,10,17.70
2015,05,23,18,11,17.70
2015,05,23,18,12,17.60
2015,05,23,18,13,17.50
2015,05,23,18,14,17.50
2015,05,23,18,15,17.40
2015,05,23,18,16,17.40
2015,05,23,18,17,17.40
2015,05,23,18,18,17.40
2015,05,23,18,19,17.30
2015,05,23,18,20,17.30
2015,05,23,18,21,17.30
2015,05,23,18,22,17.40
2015,05,23,18,23,17.40
2015,05,23,18,24,17.40
2015,05,23,18,25,17.40
2015,05,23,18,26,17.40
2015,05,23,18,27,17.40
2015,05,23,18,28,17.50
2015,05,23,18,29,17.60
2015,05,23,18,30,17.60
2015,05,23,18,31,17.70
2015,05,23,18,32,17.70
2015,05,23,18,33,17.80
2015,05,23,18,34,17.80
2015,05,23,18,35,17.70
2015,05,23,18,36,17.60
2015,05,23,18,37,17.60
2015,05,23,18,38,17.50
2015,05,23,18,39,17.50
2015,05,23,18,40,17.40
2015,05,23,18,41,17.30
2015,05,23,18,42,17.30
2015,05,23,18,43,17.30
2015,05,23,18,44,17.30
2015,05,23,18,45,17.40
2015,05,23,18,46,17.40
2015,05,23,18,47,17.40
2015,05,23,18,48,17.30
2015,05,23,18,49,17.30
2015,05,23,18,50,17.30
2015,05,23,18,51,17.40
2015,05,23,18,52,17.40
2015,05,23,18,53,17.40
2015,05,23,18,54,17.50
2015,05,23,18,55,17.50
2015,05,23,18,56,17.60
2015,05,23,18,57,17.60
2015,05,23,18,58,17.50
2015,05,23,18,59,17.40
2015,05,23,19,00,17.30
2015,05,23,19,01,17.20
2015,05,23,19,02,17.20
2015,05,23,19,03,17.20
2015,05,23,19,04,17.10
2015,05,23,19,05,17.10
2015,05,23,19,06,17.10
2015,05,23,19,07,17.00
2015,05,23,19,08,16.90
2015,05,23,19,09,16.90
2015,05,23,19,10,16.80
2015,05,23,19,11,16.90
2015,05,23,19,12,16.90
2015,05,23,19,13,16.90
2015,05,23,19,14,16.90
2015,05,23,19,15,16.90
2015,05,23,19,16,16.90
2015,05,23,19,17,16.90
2015,05,23,19,18,16.90
2015,05,23,19,19,16.90
2015,05,23,19,20,16.90
2015,05,23,19,21,16.90
2015,05,23,19,22,16.90
2015,05,23,19,23,16.90
2015,05,23,19,39,16.10
2015,05,23,19,40,16.10
2015,05,23,19,41,15.90
2015,05,23,19,42,15.90
2015,05,23,19,43,15.80
2015,05,23,19,44,15.80
2015,05,23,19,45,15.70
2015,05,23,19,46,15.60
2015,05,23,19,47,15.60
2015,05,23,19,48,15.60
2015,05,23,19,49,15.60
2015,05,23,19,50,15.60
2015,05,23,19,51,15.60
2015,05,23,19,52,15.60
2015,05,23,19,53,15.60
2015,05,23,19,54,15.60
2015,05,23,19,55,15.60
2015,05,23,19,56,15.60
